Weather History for Georgetown, SC

Change the Weather History Date:

Wednesday, November 17, 2010

  Actual Average Record
Temperature  
Mean Temperature 54 °F -  
Max Temperature 66 °F 67 °F 77 °F (2011)
Min Temperature 42 °F 46 °F 41 °F (2012)
Degree Days  
Heating Degree Days 11    
Growing Degree Days 4 (Base 50)    
Moisture  
Dew Point 48 °F    
Average Humidity 73    
Maximum Humidity 100    
Minimum Humidity 49    
Precipitation  
Precipitation 0.00 in - - ()
Sea Level Pressure  
Sea Level Pressure 30.01 in    
Wind  
Wind Speed 10 mph (West)    
Max Wind Speed 20 mph    
Max Gust Speed 25 mph    
Visibility 10 miles    
Events      
Averages and records for this station are not official NWS values.
T = Trace of Precipitation, MM = Missing Value Source: NWS Daily Summary

Daily Weather History Graph

Daily Weather History Graph

Search for Another Location

Airport:

Trip Planner

Search our weather history database for the weather conditions in past years. The results will help you decide how hot, cold, wet, or windy it might be!

Date:

Astronomy

Nov. 17, 2010 Rise Set
Actual Time 6:50 AM EST 5:13 PM EST
Civil Twilight 6:23 AM EST 5:40 PM EST
Nautical Twilight 5:53 AM EST 6:10 PM EST
Astronomical Twilight 5:24 AM EST 6:39 PM EST
Moon 2:37 PM EST (11/17) 2:57 AM EST (11/17)
Length of Visible Light 11h 16m
Length of Day
10h 23m
Waxing Gibbous, 85% of the Moon is Illuminated
Nov 17
Waxing Gibbous
Nov 21
Full
Nov 28
Last Quarter
Dec 5
New
Dec 13
First Quarter

Hourly Weather History & Observations

Time (EST) Temp. Windchill Dew Point Humidity Pressure Visibility Wind Dir Wind Speed Gust Speed Precip Events Conditions
12:35 AM 66.2 °F - 62.6 °F 88% 29.81 in 10.0 mi SW 19.6 mph 25.3 mph N/A   Mostly Cloudy
1:15 AM 66.2 °F - 62.6 °F 88% 29.82 in 10.0 mi SW 11.5 mph 20.7 mph N/A   Scattered Clouds
1:55 AM 64.4 °F - 60.8 °F 88% 29.83 in 10.0 mi SW 11.5 mph 18.4 mph N/A   Clear
2:35 AM 64.4 °F - 59.0 °F 83% 29.85 in 10.0 mi SW 12.7 mph 18.4 mph N/A   Scattered Clouds
2:55 AM 64.4 °F - 59.0 °F 83% 29.85 in 10.0 mi SW 11.5 mph - N/A   Clear
3:15 AM 64.4 °F - 59.0 °F 83% 29.86 in 10.0 mi SW 10.4 mph - N/A   Clear
3:55 AM 62.6 °F - 59.0 °F 88% 29.87 in 10.0 mi WSW 9.2 mph - N/A   Scattered Clouds
4:35 AM 62.6 °F - 59.0 °F 88% 29.89 in 10.0 mi West 9.2 mph - N/A   Mostly Cloudy
4:55 AM 60.8 °F - 55.4 °F 82% 29.90 in 10.0 mi West 8.1 mph - N/A   Scattered Clouds
5:15 AM 60.8 °F - 53.6 °F 77% 29.91 in 10.0 mi West 6.9 mph - N/A   Clear
5:35 AM 60.8 °F - 50.0 °F 68% 29.93 in 10.0 mi West 8.1 mph - N/A   Clear
5:55 AM 59.0 °F - 50.0 °F 72% 29.93 in 10.0 mi West 8.1 mph - N/A   Clear
6:15 AM 59.0 °F - 50.0 °F 72% 29.94 in 10.0 mi West 6.9 mph - N/A   Clear
6:35 AM 57.2 °F - 50.0 °F 77% 29.95 in 10.0 mi West 8.1 mph - N/A   Clear
6:55 AM 53.6 °F - 48.2 °F 82% 29.96 in 10.0 mi WSW 5.8 mph - N/A   Clear
7:15 AM 55.4 °F - 50.0 °F 82% 29.97 in 10.0 mi West 8.1 mph - N/A   Clear
7:35 AM 55.4 °F - 50.0 °F 82% 29.99 in 10.0 mi West 10.4 mph - N/A   Clear
7:55 AM 57.2 °F - 48.2 °F 72% 30.00 in 10.0 mi West 9.2 mph - N/A   Clear
8:15 AM 59.0 °F - 48.2 °F 67% 30.01 in 10.0 mi West 10.4 mph - N/A   Clear
8:35 AM 59.0 °F - 48.2 °F 67% 30.01 in 10.0 mi West 9.2 mph - N/A   Clear
8:55 AM 59.0 °F - 48.2 °F 67% 30.02 in 10.0 mi West 13.8 mph 17.3 mph N/A   Clear
9:15 AM 60.8 °F - 48.2 °F 63% 30.02 in 10.0 mi West 9.2 mph 17.3 mph N/A   Clear
9:35 AM 60.8 °F - 48.2 °F 63% 30.03 in 10.0 mi WNW 10.4 mph 18.4 mph N/A   Clear
9:55 AM 60.8 °F - 48.2 °F 63% 30.04 in 10.0 mi WNW 12.7 mph - N/A   Clear
10:15 AM 60.8 °F - 46.4 °F 59% 30.04 in 10.0 mi West 13.8 mph 19.6 mph N/A   Clear
10:55 AM 62.6 °F - 46.4 °F 55% 30.03 in 10.0 mi West 12.7 mph - N/A   Clear
11:15 AM 62.6 °F - 46.4 °F 55% 30.03 in 10.0 mi West 12.7 mph 16.1 mph N/A   Clear
11:35 AM 62.6 °F - 46.4 °F 55% 30.03 in 10.0 mi NW 9.2 mph - N/A   Clear
11:55 AM 64.4 °F - 46.4 °F 52% 30.02 in 10.0 mi NW 8.1 mph 11.5 mph N/A   Clear
12:15 PM 64.4 °F - 46.4 °F 52% 30.01 in 10.0 mi WNW 10.4 mph 18.4 mph N/A   Clear
12:35 PM 64.4 °F - 46.4 °F 52% 30.01 in 10.0 mi WNW 11.5 mph - N/A   Clear
12:55 PM 64.4 °F - 44.6 °F 49% 30.01 in 10.0 mi NW 11.5 mph 18.4 mph N/A   Clear
1:15 PM 64.4 °F - 46.4 °F 52% 30.01 in 10.0 mi West 10.4 mph - N/A   Clear
1:35 PM 64.4 °F - 44.6 °F 49% 30.01 in 10.0 mi WNW 10.4 mph - N/A   Clear
1:55 PM 64.4 °F - 44.6 °F 49% 30.01 in 10.0 mi WNW 9.2 mph 16.1 mph N/A   Clear
2:15 PM 64.4 °F - 44.6 °F 49% 30.01 in 10.0 mi NW 8.1 mph - N/A   Clear
2:35 PM 64.4 °F - 44.6 °F 49% 30.01 in 10.0 mi WNW 11.5 mph 17.3 mph N/A   Clear
2:55 PM 64.4 °F - 44.6 °F 49% 30.01 in 10.0 mi NW 9.2 mph - N/A   Clear
3:15 PM 64.4 °F - 44.6 °F 49% 30.02 in 10.0 mi West 8.1 mph - N/A   Clear
3:35 PM 64.4 °F - 44.6 °F 49% 30.03 in 10.0 mi NW 8.1 mph - N/A   Clear
3:55 PM 64.4 °F - 44.6 °F 49% 30.03 in 10.0 mi WNW 8.1 mph - N/A   Clear
4:15 PM 62.6 °F - 44.6 °F 52% 30.04 in 10.0 mi WNW 5.8 mph - N/A   Clear
4:35 PM 62.6 °F - 44.6 °F 52% 30.04 in 10.0 mi WNW 3.5 mph - N/A   Clear
4:55 PM 60.8 °F - 46.4 °F 59% 30.05 in 10.0 mi West 3.5 mph - N/A   Clear
5:35 PM 59.0 °F - 46.4 °F 63% 30.07 in 10.0 mi Calm Calm - N/A   Clear
5:55 PM 51.8 °F - 48.2 °F 88% 30.08 in 10.0 mi Calm Calm - N/A   Clear
6:15 PM 50.0 °F - 46.4 °F 87% 30.09 in 10.0 mi Calm Calm - N/A   Clear
6:35 PM 50.0 °F - 48.2 °F 94% 30.10 in 10.0 mi Calm Calm - N/A   Clear
6:55 PM 46.4 °F - 46.4 °F 100% 30.10 in 10.0 mi Calm Calm - N/A   Clear
7:15 PM 46.4 °F - 46.4 °F 100% 30.11 in 10.0 mi Calm Calm - N/A   Clear
7:35 PM 44.6 °F - 44.6 °F 100% 30.11 in 10.0 mi Calm Calm - N/A   Clear
7:55 PM 44.6 °F - 44.6 °F 100% 30.11 in 10.0 mi Calm Calm - N/A   Clear
8:15 PM 44.6 °F - 44.6 °F 100% 30.12 in 10.0 mi Calm Calm - N/A   Clear
8:35 PM 44.6 °F - 44.6 °F 100% 30.12 in 10.0 mi Calm Calm - N/A   Clear
8:55 PM 42.8 °F 41.1 °F 42.8 °F 100% 30.13 in 10.0 mi WSW 3.5 mph - N/A   Clear
9:15 PM 44.6 °F 43.1 °F 44.6 °F 100% 30.13 in 10.0 mi WNW 3.5 mph - N/A   Clear
9:35 PM 42.8 °F 40.1 °F 42.8 °F 100% 30.13 in 10.0 mi WNW 4.6 mph - N/A   Clear
9:55 PM 42.8 °F - 42.8 °F 100% 30.13 in 10.0 mi Calm Calm - N/A   Clear
10:15 PM 42.8 °F - 42.8 °F 100% 30.14 in 10.0 mi Calm Calm - N/A   Clear
10:35 PM 41.0 °F - 41.0 °F 100% 30.14 in 10.0 mi Calm Calm - N/A   Clear
10:55 PM 42.8 °F - 42.8 °F 100% 30.15 in 10.0 mi Calm Calm - N/A   Clear
11:15 PM 41.0 °F - 41.0 °F 100% 30.15 in 10.0 mi Calm Calm - N/A   Clear
11:35 PM 41.0 °F - 41.0 °F 100% 30.15 in 10.0 mi Calm Calm - N/A   Clear
11:55 PM 41.0 °F - 41.0 °F 100% 30.14 in 10.0 mi Calm Calm - N/A   Clear